St. Petersburg Airport, FL

12:58 AM EDT on March 24, 2017 (GMT -0400)
Saint Petersburg-Clearwater International

Weather History for KPIE - January, 2013

Change the Weather History Date:

Friday, January 25, 2013

  Actual Average Record
Temperature  
Mean Temperature 60 °F -  
Max Temperature 72 °F 70 °F 88 °F (1984)
Min Temperature 48 °F 54 °F 37 °F (2003)
Degree Days  
Heating Degree Days 5    
Growing Degree Days 10 (Base 50)    
Moisture  
Dew Point 50 °F    
Average Humidity 87    
Maximum Humidity 100    
Minimum Humidity 41    
Precipitation  
Precipitation 0.00 in - - ()
Sea Level Pressure  
Sea Level Pressure 30.27 in    
Wind  
Wind Speed 1 mph (North)    
Max Wind Speed 7 mph    
Max Gust Speed -    
Visibility 5 miles    
Events Fog    
Averages and records for this station are not official NWS values.
T = Trace of Precipitation, MM = Missing Value Source: NWS Daily Summary

Daily Weather History Graph

Daily Weather History Graph

Search for Another Location

Airport or City:

Trip Planner

Search our weather history database for the weather conditions in past years. The results will help you decide how hot, cold, wet, or windy it might be!

Date:

Astronomy

Jan. 25, 2013 Rise Set
Actual Time 7:20 AM EST 6:05 PM EST
Civil Twilight 6:55 AM EST 6:30 PM EST
Nautical Twilight 6:27 AM EST 6:59 PM EST
Astronomical Twilight 5:59 AM EST 7:27 PM EST
Moon 5:01 PM EST (1/25) 5:58 AM EST (1/25)
Length of Visible Light 11h 34m
Length of Day
10h 45m
Waxing Gibbous, 98% of the Moon is Illuminated
Jan 25
Waxing Gibbous
Jan 26
Full
Feb 3
Last Quarter
Feb 10
New
Feb 17
First Quarter

Hourly Weather History & Observations

Time (EST) Temp. Dew Point Humidity Pressure Visibility Wind Dir Wind Speed Gust Speed Precip Events Conditions
12:01 AM 51.8 °F 50.0 °F 94% 30.31 in 4.0 mi Calm Calm - N/A   Clear
12:12 AM 51.8 °F 50.0 °F 94% 30.31 in 1.8 mi Calm Calm - N/A   Clear
12:21 AM 51.8 °F 50.0 °F 94% 30.31 in 4.0 mi Calm Calm - N/A   Clear
12:53 AM 50.0 °F 48.9 °F 96% 30.31 in 2.5 mi Calm Calm - N/A   Clear
1:18 AM 50.0 °F 48.2 °F 94% 30.31 in 8.0 mi North 3.5 mph - N/A   Clear
1:53 AM 52.0 °F 51.1 °F 97% 30.30 in 4.0 mi Calm Calm - N/A   Clear
1:57 AM 51.8 °F 51.8 °F 100% 30.30 in 1.8 mi Calm Calm - N/A   Clear
2:07 AM 51.8 °F 51.8 °F 100% 30.29 in 4.0 mi Calm Calm - N/A   Clear
2:53 AM 50.0 °F 50.0 °F 100% 30.28 in 2.5 mi Calm Calm - N/A   Clear
3:06 AM 51.8 °F 51.8 °F 100% 30.28 in 1.2 mi Calm Calm - N/A   Clear
3:26 AM 50.0 °F 50.0 °F 100% 30.27 in 0.8 mi Calm Calm - N/A   Mist
3:40 AM 48.2 °F 48.2 °F 100% 30.27 in 1.2 mi Calm Calm - N/A   Partly Cloudy
3:51 AM 48.2 °F 48.2 °F 100% 30.27 in 0.8 mi Calm Calm - N/A   Clear
3:53 AM 48.9 °F 48.0 °F 97% 30.27 in 0.8 mi Calm Calm - N/A   Clear
4:00 AM 48.2 °F 48.2 °F 100% 30.27 in 2.5 mi Calm Calm - N/A   Clear
4:07 AM 50.0 °F 48.2 °F 94% 30.27 in 4.0 mi Calm Calm - N/A   Clear
4:24 AM 48.2 °F 48.2 °F 100% 30.27 in 1.8 mi Calm Calm - N/A   Clear
4:39 AM 48.2 °F 48.2 °F 100% 30.27 in 0.8 mi Calm Calm - N/A   Clear
4:46 AM 48.2 °F 48.2 °F 100% 30.27 in 2.0 mi NNW 3.5 mph - N/A   Clear
4:53 AM 48.9 °F 48.0 °F 97% 30.27 in 4.0 mi NNW 3.5 mph - N/A   Clear
4:55 AM 48.2 °F 48.2 °F 100% 30.27 in 1.5 mi NNW 3.5 mph - N/A   Clear
4:57 AM 48.2 °F 48.2 °F 100% 30.27 in 0.8 mi Calm Calm - N/A   Mist
5:32 AM 48.2 °F 48.2 °F 100% 30.28 in 0.5 mi North 3.5 mph - N/A Fog Fog
5:42 AM 50.0 °F 48.2 °F 94% 30.28 in 2.0 mi North 3.5 mph - N/A   Clear
5:53 AM 48.9 °F 48.0 °F 97% 30.28 in 2.0 mi Calm Calm - N/A   Clear
6:01 AM 48.2 °F 48.2 °F 100% 30.29 in 7.0 mi North 3.5 mph - N/A   Clear
6:53 AM 48.0 °F 46.9 °F 96% 30.31 in 7.0 mi SE 4.6 mph - N/A   Clear
7:53 AM 53.1 °F 53.1 °F 100% 30.31 in 7.0 mi ESE 4.6 mph - N/A   Clear
8:53 AM 59.0 °F 57.0 °F 93% 30.32 in 6.0 mi Calm Calm - N/A   Clear
9:53 AM 62.1 °F 55.9 °F 80% 30.33 in 10.0 mi Variable 3.5 mph - N/A   Clear
10:53 AM 64.0 °F 55.9 °F 75% 30.33 in 10.0 mi NE 5.8 mph - N/A   Clear
11:53 AM 68.0 °F 55.0 °F 63% 30.30 in 10.0 mi ENE 4.6 mph - N/A   Clear
12:53 PM 70.0 °F 48.9 °F 47% 30.27 in 10.0 mi NE 5.8 mph - N/A   Clear
1:53 PM 71.1 °F 48.9 °F 45% 30.24 in 10.0 mi NNE 6.9 mph - N/A   Clear
2:53 PM 72.0 °F 46.9 °F 41% 30.22 in 10.0 mi East 3.5 mph - N/A   Clear
3:53 PM 72.0 °F 48.0 °F 43% 30.21 in 10.0 mi NNW 4.6 mph - N/A   Clear
4:53 PM 71.1 °F 46.9 °F 42% 30.21 in 10.0 mi WSW 5.8 mph - N/A   Clear
5:53 PM 64.9 °F 51.1 °F 61% 30.22 in 10.0 mi NW 6.9 mph - N/A   Clear
6:53 PM 62.1 °F 52.0 °F 70% 30.23 in 10.0 mi Calm Calm - N/A   Clear
7:53 PM 59.0 °F 51.1 °F 75% 30.24 in 10.0 mi WNW 3.5 mph - N/A   Clear
8:53 PM 55.0 °F 51.1 °F 86% 30.25 in 10.0 mi Calm Calm - N/A   Clear
9:53 PM 54.0 °F 50.0 °F 86% 30.24 in 10.0 mi WSW 3.5 mph - N/A   Clear
10:53 PM 53.1 °F 51.1 °F 93% 30.24 in 9.0 mi WSW 4.6 mph - N/A   Clear
11:53 PM 54.0 °F 52.0 °F 93% 30.25 in 7.0 mi Calm Calm - N/A   Clear